Location: Evergreen Manor
(41.4083°N, 81.4939°W)
Time: 00:42:40
(UTC+00:00)

Cosmos 1674 Rocket - Pass Details

Date: 11 December 2019
Orbit: 602 x 631 km, 82.5° (Epoch: 27 January)

Event Time Altitude Azimuth Distance (km) Brightness Sun altitude
Rises 11:39:08 0° 353° (N) 2,880 6.7 -11.4°
Reaches altitude 10° 11:41:23 10° 356° (N) 1,967 5.9 -11.0°
Maximum altitude 11:45:44 75° 82° (E) 630 3.7 -10.3°
Drops below altitude 10° 11:50:01 10° 168° (SSE) 1,942 6.6 -9.5°
Sets 11:52:13 0° 170° (S) 2,839 7.5 -9.1°
